Regional Weather Roundup
Issued by NWS

Home | Current Version | Previous Version | Text Only | Print | Product List | Glossary Off
Versions: 1 2 3 4 5 6 7 8 9 10 11 12 13 14 15 16 17 18 19 20 21 22 23 24 25 26 27 28 29 30 31 32 33 34 35 36 37 38 39 40 41 42 43 44 45 46 47 48 49 50

000
ASUS43 KFSD 230902
RWRSD

WEATHER ROUNDUP FOR SOUTH DAKOTA
NATIONAL WEATHER SERVICE SIOUX FALLS SD
300 AM CST THU FEB 23 2017

NOTE: "FAIR" INDICATES FEW OR NO CLOUDS BELOW 12,000 FEET WITH NO
SIGNIFICANT WEATHER AND/OR OBSTRUCTIONS TO VISIBILITY.


SDZ001>005-009-010-012>017-231000-
NORTHWEST AND NORTH CENTRAL SOUTH DAKOTA

CITY           SKY/WX    TMP DP  RH WIND       PRES   REMARKS
BUFFALO          N/A     29  26  89 E10       29.86F WCI  20
FAITH            N/A     29  29 100 NE9       29.94S WCI  20
MOBRIDGE       PTCLDY    28  23  81 N5        29.96S WCI  23
$$

SDZ012>016-024>037-041>051-057-063-072>074-231000-
SOUTHWEST AND SOUTH CENTRAL SOUTH DAKOTA

CITY           SKY/WX    TMP DP  RH WIND       PRES   REMARKS
RAPID CTY ARPT CLOUDY    30  28  92 NE7       29.90R FOG     WCI  23
PIERRE         CLOUDY    30  24  78 NE13      29.97R WCI  20
CUSTER         LGT SNOW  23  21  92 NE9       29.78F FOG     WCI  13
ELLSWORTH AFB  CLOUDY    30  30 100 NE6       29.90  WCI  24
PHILIP         CLOUDY    31  27  85 E15       29.95R WCI  20
PINE RIDGE     LGT SNOW  30  30 100 NE12      29.84F VSB 3/4 WCI  20
SPEARFISH      CLOUDY    27  27 100 E8        29.88S FOG     WCI  18
WINNER         CLOUDY    32  27  81 NE15      29.93R WCI  22
$$

SDZ004>011-016>023-039-040-231000-
NORTHEAST SOUTH DAKOTA

CITY           SKY/WX    TMP DP  RH WIND       PRES   REMARKS
ABERDEEN       CLEAR     25  21  85 N8        29.97F WCI  16
WATERTOWN      CLEAR     26  23  88 NE13      29.90F WCI  15
BROOKINGS      CLOUDY    30  25  81 NE16G22   29.86F WCI  19
SISSETON         N/A     28  25  88 N12       29.94F WCI  18
$$

SDZ017-020-022-023-036>040-048>070-231000-
SOUTHEAST SOUTH DAKOTA

CITY           SKY/WX    TMP DP  RH WIND       PRES   REMARKS
SIOUX FALLS    CLOUDY    32  29  88 N15       29.87S WCI  22
HURON          CLOUDY    30  26  85 N12       29.96R WCI  20
CHAMBERLAIN    CLOUDY    32  29  88 N12       29.94F WCI  23
MITCHELL       CLOUDY    32  28  85 N16       29.95R WCI  21
YANKTON        CLOUDY    34  28  80 N17       29.87F WCI  23
$$

ABBREVIATIONS USED IN REMARKS
   TC - TEMPERATURE IN CELSIUS
  WCI - WIND CHILL INDEX
   HX - HEAT INDEX
  VSB - VISIBILITY





USA.gov is the U.S. government's official web portal to all federal, state and local government web resources and services.